sat.trackr.live / text

‹ back to catalog

STARLINK-34488

NORAD 64604 · 2025-137L

PAYLOAD ACTIVE UNKNOWN

§ Identity

Operator
Country
US
Launch date
2025-06-25
Launch site
AFETR
Launch vehicle
Mass (kg)
RCS (m²)

Purposes: comms

External: N2YO · Heavens-Above · Gunter

§ Orbital elements

Epoch: 2026-09-20T07:16:54.547968Z

Period
93.85 min
Inclination
53.1585°
Eccentricity
0.0000632
Mean motion
15.34399057 rev/d
Perigee alt
462.3 km
Apogee alt
463.1 km
Semi-major
6,840.8 km
B*
3.2924e-4
RAAN
150.3919°
Arg perigee
86.9623°
Mean anomaly
273.1452°
Rev number
7,054

§ Raw data

STARLINK-344881 64604U 25137L   26263.30340912  .00010764  00000+0  32924-3 0  99992 64604  53.1585 150.3919 0000632  86.9623 273.1452 15.34399057 70548

JSON: /api/v1/satellites/64604 · /tle

For live sub-satellite position, see the globe view (requires WebGL).

§ Visibility from observer

Set your observer location to see the next 7 days of passes ≥ 10°. The values pass through the URL so the page stays shareable.

No JS? Fill the form by hand. The geolocation button needs JavaScript.